ENT4NH EPKT-LGKO

Flight info

Callsign ENT4NH
Flight time 2h 8m
Altitude 35000
Route BABKO DCT REDSI DCT PITOK DCT BUDOP DCT LOMOS DCT NIKTI UN127 LMO UL618 MES UN139 LURUS L995 KOPAR
Aircraft B738/M-SDE2E3FGHIRWXY/LB1

Departure

Time 2026-05-06 11:35
Airport Katowice Wojciech Korfanty International Airport (EPKT)

Arrival

Time 2026-05-06 13:44
Airport Kos International Airport "Ippokratis" (LGKO)
Time Latitude Longitude Altitude Speed Heading
2026-05-06 11:12 50.47149 19.07695 984 ft 0 kts 180°
2026-05-06 11:26 50.47154 19.07695 984 ft 2 kts 180°
2026-05-06 11:26 50.47169 19.07695 983 ft 2 kts 179°
2026-05-06 11:27 50.47184 19.07695 983 ft 2 kts 180°
2026-05-06 11:27 50.47197 19.07695 983 ft 0 kts 180°
2026-05-06 11:27 50.47208 19.07694 983 ft 2 kts 163°
2026-05-06 11:27 50.47222 19.07683 983 ft 2 kts 140°
2026-05-06 11:28 50.47232 19.07665 983 ft 2 kts 117°
2026-05-06 11:28 50.47236 19.07643 983 ft 1 kts 95°
2026-05-06 11:28 50.47236 19.07633 983 ft 1 kts 88°
2026-05-06 11:28 50.47236 19.07629 983 ft 0 kts 90°
2026-05-06 11:30 50.47236 19.07653 983 ft 7 kts 90°
2026-05-06 11:30 50.47236 19.07774 983 ft 13 kts 91°
2026-05-06 11:30 50.47235 19.07937 983 ft 16 kts 89°
2026-05-06 11:31 50.47234 19.08141 983 ft 20 kts 90°
2026-05-06 11:31 50.47234 19.08381 985 ft 23 kts 90°
2026-05-06 11:31 50.47234 19.08657 986 ft 26 kts 90°
2026-05-06 11:31 50.47233 19.08922 990 ft 22 kts 91°
2026-05-06 11:32 50.47232 19.09147 994 ft 18 kts 90°
2026-05-06 11:32 50.47231 19.09336 995 ft 15 kts 90°
2026-05-06 11:32 50.47232 19.09486 998 ft 11 kts 90°
2026-05-06 11:32 50.47231 19.09631 1001 ft 15 kts 90°
2026-05-06 11:33 50.47230 19.09813 1006 ft 18 kts 90°
2026-05-06 11:33 50.47240 19.10018 1011 ft 17 kts 68°
2026-05-06 11:33 50.47305 19.10157 1013 ft 16 kts 52°
2026-05-06 11:33 50.47382 19.10317 1011 ft 18 kts 52°
2026-05-06 11:34 50.47408 19.10369 1011 ft 18 kts 52°
2026-05-06 11:34 50.47570 19.10431 1008 ft 15 kts 330°
2026-05-06 11:34 50.47596 19.10281 1006 ft 16 kts 270°
2026-05-06 11:34 50.47592 19.09789 995 ft 84 kts 268°
2026-05-06 11:35 50.47594 19.08498 982 ft 152 kts 269°
2026-05-06 11:35 50.47590 19.06647 1433 ft 174 kts 265°
2026-05-06 11:35 50.47591 19.04922 2473 ft 158 kts 266°
2026-05-06 11:35 50.47605 19.03090 2888 ft 175 kts 267°
2026-05-06 11:36 50.47616 19.01136 3373 ft 188 kts 268°
2026-05-06 11:36 50.47614 18.99011 3841 ft 203 kts 265°
2026-05-06 11:36 50.47307 18.96777 4307 ft 218 kts 242°
2026-05-06 11:36 50.46282 18.94922 4801 ft 236 kts 214°
2026-05-06 11:37 50.44758 18.93846 5389 ft 252 kts 195°
2026-05-06 11:37 50.42962 18.93569 6066 ft 265 kts 182°
2026-05-06 11:37 50.41124 18.93635 6911 ft 268 kts 180°
2026-05-06 11:37 50.39284 18.93715 7763 ft 270 kts 181°
2026-05-06 11:38 50.37407 18.93751 8623 ft 271 kts 182°
2026-05-06 11:38 50.35531 18.93750 9446 ft 274 kts 183°
2026-05-06 11:38 50.33625 18.93739 10185 ft 279 kts 184°
2026-05-06 11:38 50.31618 18.93723 10635 ft 295 kts 183°
2026-05-06 11:39 50.29527 18.93872 11079 ft 312 kts 175°
2026-05-06 11:39 50.27392 18.94851 11510 ft 333 kts 160°
2026-05-06 11:39 50.25268 18.96477 11910 ft 350 kts 155°
2026-05-06 11:39 50.23085 18.98352 12549 ft 358 kts 154°
2026-05-06 11:40 50.20900 19.00229 13280 ft 362 kts 155°
2026-05-06 11:40 50.18693 19.02067 14058 ft 364 kts 155°
2026-05-06 11:40 50.16430 19.03897 14791 ft 368 kts 156°
2026-05-06 11:40 50.14143 19.05710 15483 ft 372 kts 156°
2026-05-06 11:41 50.11820 19.07538 16188 ft 376 kts 156°
2026-05-06 11:41 50.09510 19.09352 16868 ft 379 kts 156°
2026-05-06 11:41 50.07147 19.11205 17523 ft 383 kts 156°
2026-05-06 11:41 50.04763 19.13076 18194 ft 386 kts 156°
2026-05-06 11:42 50.02368 19.14953 18793 ft 391 kts 156°
2026-05-06 11:42 49.99935 19.16856 19416 ft 395 kts 156°
2026-05-06 11:42 49.97456 19.18790 19966 ft 400 kts 156°
2026-05-06 11:42 49.94965 19.20731 20561 ft 404 kts 156°
2026-05-06 11:43 49.92453 19.22689 21156 ft 408 kts 156°
2026-05-06 11:43 49.89900 19.24678 21748 ft 411 kts 156°
2026-05-06 11:43 49.87360 19.26657 22316 ft 415 kts 156°
2026-05-06 11:44 49.82172 19.30692 23433 ft 421 kts 156°
2026-05-06 11:44 49.79559 19.32719 23989 ft 424 kts 156°
2026-05-06 11:44 49.76899 19.34778 24489 ft 428 kts 156°
2026-05-06 11:44 49.74266 19.36814 25050 ft 430 kts 156°
2026-05-06 11:45 49.71567 19.38901 25559 ft 433 kts 156°
2026-05-06 11:45 49.68870 19.40981 26040 ft 437 kts 156°
2026-05-06 11:45 49.66172 19.43061 26510 ft 440 kts 156°
2026-05-06 11:45 49.63408 19.45165 27029 ft 441 kts 157°
2026-05-06 11:46 49.60623 19.47046 27476 ft 442 kts 162°
2026-05-06 11:46 49.57709 19.48649 27912 ft 444 kts 165°
2026-05-06 11:46 49.54781 19.50053 28335 ft 447 kts 166°
2026-05-06 11:46 49.51773 19.51396 28794 ft 449 kts 167°
2026-05-06 11:47 49.48754 19.52705 29286 ft 450 kts 167°
2026-05-06 11:47 49.45767 19.54000 29980 ft 446 kts 167°
2026-05-06 11:47 49.42814 19.55289 30622 ft 443 kts 167°
2026-05-06 11:47 49.39899 19.56574 31282 ft 439 kts 167°
2026-05-06 11:48 49.36969 19.57872 31862 ft 437 kts 167°
2026-05-06 11:48 49.34022 19.59179 32303 ft 438 kts 167°
2026-05-06 11:48 49.31105 19.60475 32726 ft 438 kts 167°
2026-05-06 11:48 49.28193 19.61772 33252 ft 436 kts 167°
2026-05-06 11:49 49.25313 19.63119 33808 ft 434 kts 165°
2026-05-06 11:49 49.22508 19.64730 34317 ft 433 kts 160°
2026-05-06 11:49 49.19756 19.66677 34742 ft 434 kts 158°
2026-05-06 11:49 49.17073 19.68786 34912 ft 438 kts 156°
2026-05-06 11:50 49.11734 19.73237 34925 ft 436 kts 155°
2026-05-06 11:50 49.06454 19.77669 34941 ft 436 kts 156°
2026-05-06 11:51 49.01134 19.82063 34943 ft 436 kts 156°
2026-05-06 11:51 48.95814 19.86409 34943 ft 436 kts 156°
2026-05-06 11:52 48.90453 19.90766 34942 ft 437 kts 156°
2026-05-06 11:52 48.85113 19.95091 34943 ft 437 kts 156°
2026-05-06 11:53 48.79735 19.99434 34939 ft 437 kts 156°
2026-05-06 11:53 48.74376 20.03749 34938 ft 438 kts 156°
2026-05-06 11:54 48.68978 20.08085 34938 ft 438 kts 156°
2026-05-06 11:54 48.63593 20.12403 34933 ft 439 kts 156°
2026-05-06 11:55 48.58232 20.16689 34923 ft 440 kts 156°
2026-05-06 11:55 48.52772 20.21040 34912 ft 440 kts 156°
2026-05-06 11:56 48.47369 20.25339 34894 ft 440 kts 156°
2026-05-06 11:56 48.41943 20.29649 34899 ft 441 kts 156°
2026-05-06 11:57 48.36517 20.33950 34895 ft 441 kts 156°
2026-05-06 11:57 48.31074 20.38226 34908 ft 442 kts 157°
2026-05-06 11:58 48.25582 20.42208 34904 ft 442 kts 159°
2026-05-06 11:58 48.20003 20.46096 34902 ft 442 kts 159°
2026-05-06 11:59 48.14416 20.49988 34909 ft 443 kts 159°
2026-05-06 11:59 48.08854 20.53880 34912 ft 441 kts 159°
2026-05-06 12:00 48.03285 20.57786 34912 ft 442 kts 159°
2026-05-06 12:00 47.97697 20.61701 34911 ft 444 kts 159°
2026-05-06 12:01 47.92149 20.65581 34899 ft 444 kts 159°
2026-05-06 12:01 47.86540 20.69498 34899 ft 445 kts 159°
2026-05-06 12:02 47.80934 20.73401 34898 ft 445 kts 159°
2026-05-06 12:02 47.75344 20.77288 34915 ft 446 kts 159°
2026-05-06 12:03 47.69717 20.81190 34919 ft 446 kts 159°
2026-05-06 12:03 47.64099 20.85076 34918 ft 447 kts 160°
2026-05-06 12:04 47.58444 20.88981 34930 ft 448 kts 159°
2026-05-06 12:04 47.52796 20.92875 34926 ft 448 kts 159°
2026-05-06 12:05 47.47173 20.96736 34932 ft 449 kts 159°
2026-05-06 12:05 47.41485 21.00631 34931 ft 448 kts 159°
2026-05-06 12:06 47.35822 21.04500 34932 ft 450 kts 159°
2026-05-06 12:06 47.30161 21.08358 34938 ft 451 kts 159°
2026-05-06 12:07 47.24489 21.12215 34938 ft 451 kts 159°
2026-05-06 12:07 47.18782 21.16082 34933 ft 452 kts 159°
2026-05-06 12:08 47.13042 21.19969 34935 ft 454 kts 159°
2026-05-06 12:08 47.07303 21.23849 34938 ft 455 kts 159°
2026-05-06 12:09 47.01596 21.27696 34933 ft 453 kts 159°
2026-05-06 12:09 46.95839 21.31562 34941 ft 457 kts 159°
2026-05-06 12:10 46.90058 21.35437 34945 ft 457 kts 159°
2026-05-06 12:10 46.84273 21.39306 34951 ft 455 kts 159°
2026-05-06 12:11 46.78524 21.43143 34955 ft 457 kts 159°
2026-05-06 12:11 46.72738 21.46993 34956 ft 457 kts 159°
2026-05-06 12:12 46.66987 21.50802 34956 ft 458 kts 159°
2026-05-06 12:12 46.61156 21.54598 34956 ft 460 kts 159°
2026-05-06 12:13 46.55312 21.58363 34956 ft 461 kts 159°
2026-05-06 12:13 46.49440 21.62140 34957 ft 459 kts 159°
2026-05-06 12:14 46.43604 21.65895 34959 ft 460 kts 160°
2026-05-06 12:14 46.37775 21.69625 34962 ft 460 kts 160°
2026-05-06 12:15 46.31929 21.73363 34964 ft 459 kts 160°
2026-05-06 12:15 46.26060 21.77125 34969 ft 462 kts 160°
2026-05-06 12:16 46.20215 21.80854 34974 ft 462 kts 160°
2026-05-06 12:16 46.14318 21.84606 34981 ft 462 kts 160°
2026-05-06 12:17 46.08467 21.88323 34984 ft 461 kts 160°
2026-05-06 12:17 46.02569 21.92061 34986 ft 463 kts 160°
2026-05-06 12:18 45.96679 21.95778 34984 ft 464 kts 160°
2026-05-06 12:18 45.90762 21.99505 34986 ft 465 kts 160°
2026-05-06 12:19 45.84851 22.03221 34987 ft 465 kts 159°
2026-05-06 12:19 45.78947 22.06925 34987 ft 465 kts 159°
2026-05-06 12:20 45.73031 22.10628 34993 ft 465 kts 160°
2026-05-06 12:20 45.67102 22.14332 34989 ft 466 kts 160°
2026-05-06 12:21 45.61181 22.18014 34994 ft 466 kts 159°
2026-05-06 12:21 45.55207 22.21726 34989 ft 468 kts 159°
2026-05-06 12:22 45.49225 22.25441 34990 ft 468 kts 159°
2026-05-06 12:22 45.43257 22.29133 35002 ft 468 kts 159°
2026-05-06 12:23 45.37309 22.32805 35017 ft 470 kts 159°
2026-05-06 12:23 45.31313 22.36495 35028 ft 469 kts 159°
2026-05-06 12:24 45.25322 22.40171 35040 ft 469 kts 159°
2026-05-06 12:24 45.19346 22.43831 35046 ft 470 kts 159°
2026-05-06 12:25 45.13340 22.47500 35038 ft 471 kts 159°
2026-05-06 12:25 45.07332 22.51164 35032 ft 471 kts 159°
2026-05-06 12:26 45.01307 22.54828 35017 ft 474 kts 159°
2026-05-06 12:26 44.95264 22.58505 35008 ft 472 kts 159°
2026-05-06 12:27 44.89258 22.62149 35001 ft 473 kts 159°
2026-05-06 12:27 44.83205 22.65802 34995 ft 472 kts 159°
2026-05-06 12:28 44.77147 22.69450 34990 ft 472 kts 159°
2026-05-06 12:28 44.71127 22.73069 34984 ft 474 kts 159°
2026-05-06 12:29 44.65071 22.76704 34977 ft 473 kts 159°
2026-05-06 12:29 44.59043 22.80317 34971 ft 473 kts 159°
2026-05-06 12:30 44.52957 22.83956 34971 ft 474 kts 159°
2026-05-06 12:30 44.46914 22.87563 34975 ft 473 kts 159°
2026-05-06 12:31 44.40844 22.91174 34975 ft 474 kts 159°
2026-05-06 12:31 44.34752 22.94788 34972 ft 474 kts 159°
2026-05-06 12:32 44.28675 22.98387 34969 ft 476 kts 159°
2026-05-06 12:32 44.22608 23.01969 34964 ft 476 kts 159°
2026-05-06 12:33 44.16529 23.05551 34963 ft 475 kts 159°
2026-05-06 12:33 44.10460 23.09121 34960 ft 475 kts 159°
2026-05-06 12:34 44.04403 23.12675 34960 ft 475 kts 159°
2026-05-06 12:34 43.98328 23.16231 34959 ft 476 kts 159°
2026-05-06 12:35 43.92213 23.19803 34965 ft 474 kts 159°
2026-05-06 12:35 43.86143 23.23339 34976 ft 476 kts 159°
2026-05-06 12:36 43.79981 23.26636 34984 ft 476 kts 163°
2026-05-06 12:36 43.73617 23.29189 34991 ft 475 kts 167°
2026-05-06 12:37 43.67259 23.31547 34997 ft 475 kts 167°
2026-05-06 12:37 43.60865 23.33945 34999 ft 474 kts 166°
2026-05-06 12:38 43.54506 23.36380 34995 ft 475 kts 166°
2026-05-06 12:38 43.48134 23.38850 34996 ft 476 kts 166°
2026-05-06 12:39 43.41774 23.41329 34999 ft 477 kts 166°
2026-05-06 12:39 43.35382 23.43821 35001 ft 476 kts 166°
2026-05-06 12:40 43.29019 23.46300 35005 ft 477 kts 166°
2026-05-06 12:40 43.22612 23.48787 35013 ft 477 kts 166°
2026-05-06 12:41 43.16238 23.51259 35030 ft 478 kts 166°
2026-05-06 12:41 43.09827 23.53744 35049 ft 478 kts 166°
2026-05-06 12:42 43.03421 23.56219 35055 ft 478 kts 166°
2026-05-06 12:42 42.97031 23.58672 35060 ft 476 kts 166°
2026-05-06 12:43 42.90706 23.61097 35053 ft 478 kts 166°
2026-05-06 12:43 42.84252 23.63571 35052 ft 479 kts 166°
2026-05-06 12:44 42.77869 23.66010 35049 ft 478 kts 166°
2026-05-06 12:44 42.71447 23.68461 35058 ft 478 kts 166°
2026-05-06 12:45 42.65065 23.70889 35058 ft 477 kts 166°
2026-05-06 12:46 42.55475 23.74536 35059 ft 478 kts 166°
2026-05-06 12:46 42.49034 23.76980 35063 ft 477 kts 166°
2026-05-06 12:47 42.42664 23.79389 35068 ft 477 kts 166°
2026-05-06 12:47 42.36237 23.81814 35070 ft 478 kts 166°
2026-05-06 12:48 42.29815 23.84231 35078 ft 478 kts 166°
2026-05-06 12:48 42.23412 23.86635 35076 ft 478 kts 167°
2026-05-06 12:49 42.17045 23.89022 35084 ft 478 kts 167°
2026-05-06 12:49 42.10633 23.91418 35091 ft 478 kts 166°
2026-05-06 12:50 42.04224 23.93808 35109 ft 479 kts 167°
2026-05-06 12:50 41.97786 23.96206 35111 ft 479 kts 167°
2026-05-06 12:51 41.91388 23.98583 35110 ft 478 kts 166°
2026-05-06 12:51 41.84954 24.00971 35109 ft 478 kts 166°
2026-05-06 12:52 41.78541 24.03347 35112 ft 480 kts 167°
2026-05-06 12:52 41.72127 24.05715 35113 ft 479 kts 166°
2026-05-06 12:53 41.65675 24.08093 35106 ft 481 kts 166°
2026-05-06 12:53 41.59240 24.10479 35103 ft 480 kts 165°
2026-05-06 12:54 41.53029 24.13706 35096 ft 482 kts 153°
2026-05-06 12:54 41.47234 24.18368 35098 ft 485 kts 146°
2026-05-06 12:55 41.41667 24.23434 35095 ft 484 kts 145°
2026-05-06 12:55 41.36152 24.28493 35088 ft 485 kts 146°
2026-05-06 12:56 41.30535 24.33579 35078 ft 486 kts 146°
2026-05-06 12:56 41.24926 24.38584 35061 ft 486 kts 146°
2026-05-06 12:57 41.19312 24.43471 35050 ft 485 kts 149°
2026-05-06 12:57 41.13324 24.47733 35047 ft 487 kts 154°
2026-05-06 12:58 41.07226 24.51552 35043 ft 486 kts 156°
2026-05-06 12:58 41.01128 24.55309 35042 ft 485 kts 155°
2026-05-06 12:59 40.94991 24.59135 35040 ft 487 kts 155°
2026-05-06 12:59 40.88901 24.62968 35039 ft 486 kts 155°
2026-05-06 13:00 40.82824 24.66810 35045 ft 488 kts 155°
2026-05-06 13:00 40.76707 24.70684 35043 ft 487 kts 155°
2026-05-06 13:01 40.70569 24.74580 35043 ft 488 kts 155°
2026-05-06 13:01 40.64495 24.78431 35047 ft 488 kts 155°
2026-05-06 13:02 40.58374 24.82293 35051 ft 489 kts 155°
2026-05-06 13:02 40.52240 24.86152 35055 ft 488 kts 155°
2026-05-06 13:03 40.46072 24.90027 35058 ft 490 kts 155°
2026-05-06 13:03 40.39916 24.93888 35057 ft 489 kts 155°
2026-05-06 13:04 40.33823 24.97699 35059 ft 489 kts 155°
2026-05-06 13:04 40.27667 25.01543 35053 ft 489 kts 155°
2026-05-06 13:05 40.21520 25.05373 35046 ft 490 kts 155°
2026-05-06 13:05 40.15319 25.09229 35050 ft 490 kts 155°
2026-05-06 13:06 40.09143 25.13062 35053 ft 491 kts 155°
2026-05-06 13:06 40.02995 25.16871 35055 ft 490 kts 155°
2026-05-06 13:07 39.96849 25.20670 35059 ft 491 kts 155°
2026-05-06 13:07 39.90633 25.24332 35059 ft 490 kts 160°
2026-05-06 13:08 39.84201 25.27223 35059 ft 490 kts 164°
2026-05-06 13:08 39.77682 25.29781 35058 ft 487 kts 165°
2026-05-06 13:09 39.71203 25.32308 35056 ft 489 kts 165°
2026-05-06 13:09 39.64648 25.34911 35055 ft 489 kts 165°
2026-05-06 13:10 39.58126 25.37535 35054 ft 489 kts 164°
2026-05-06 13:10 39.51631 25.40169 35052 ft 489 kts 164°
2026-05-06 13:11 39.45137 25.42804 35054 ft 489 kts 164°
2026-05-06 13:11 39.38625 25.45445 35053 ft 488 kts 164°
2026-05-06 13:12 39.32153 25.48057 35054 ft 488 kts 164°
2026-05-06 13:12 39.25637 25.50682 35056 ft 490 kts 164°
2026-05-06 13:13 39.19150 25.53294 35056 ft 489 kts 164°
2026-05-06 13:13 39.12670 25.55896 35058 ft 489 kts 164°
2026-05-06 13:14 39.06175 25.58503 35058 ft 488 kts 164°
2026-05-06 13:14 38.99636 25.61116 35061 ft 490 kts 164°
2026-05-06 13:15 38.93118 25.63718 35062 ft 490 kts 164°
2026-05-06 13:15 38.86599 25.66314 35053 ft 490 kts 165°
2026-05-06 13:16 38.80106 25.68897 35051 ft 489 kts 165°
2026-05-06 13:16 38.73596 25.71485 35051 ft 489 kts 165°
2026-05-06 13:17 38.67059 25.74076 35051 ft 489 kts 165°
2026-05-06 13:17 38.60573 25.76643 35054 ft 488 kts 165°
2026-05-06 13:18 38.54058 25.79220 35056 ft 489 kts 165°
2026-05-06 13:18 38.47579 25.81770 35062 ft 487 kts 165°
2026-05-06 13:19 38.41070 25.84324 35070 ft 488 kts 165°
2026-05-06 13:19 38.34586 25.86870 35075 ft 488 kts 165°
2026-05-06 13:20 38.28104 25.89409 35070 ft 487 kts 165°
2026-05-06 13:20 38.21614 25.92020 35068 ft 487 kts 163°
2026-05-06 13:21 38.15264 25.94903 35060 ft 487 kts 162°
2026-05-06 13:21 38.08865 25.97904 35058 ft 490 kts 162°
2026-05-06 13:22 38.02482 26.00863 35043 ft 489 kts 162°
2026-05-06 13:22 37.96101 26.03785 35053 ft 489 kts 162°
2026-05-06 13:23 37.89729 26.06680 34901 ft 487 kts 162°
2026-05-06 13:23 37.86498 26.08144 33972 ft 496 kts 162°
2026-05-06 13:23 37.83221 26.09623 32863 ft 504 kts 162°
2026-05-06 13:23 37.79960 26.11094 31973 ft 501 kts 162°
2026-05-06 13:24 37.76720 26.12561 31319 ft 488 kts 162°
2026-05-06 13:24 37.73547 26.14000 30718 ft 475 kts 162°
2026-05-06 13:24 37.70482 26.15388 30143 ft 463 kts 162°
2026-05-06 13:24 37.67464 26.16748 29583 ft 452 kts 162°
2026-05-06 13:25 37.64532 26.18067 29032 ft 442 kts 162°
2026-05-06 13:25 37.61699 26.19339 28500 ft 432 kts 162°
2026-05-06 13:25 37.58870 26.20606 27965 ft 425 kts 162°
2026-05-06 13:25 37.56102 26.21845 27441 ft 426 kts 162°
2026-05-06 13:26 37.53275 26.23107 26902 ft 431 kts 162°
2026-05-06 13:26 37.50468 26.24361 26353 ft 426 kts 162°
2026-05-06 13:26 37.47691 26.25603 25849 ft 421 kts 162°
2026-05-06 13:26 37.44926 26.26838 25289 ft 420 kts 162°
2026-05-06 13:27 37.42181 26.28063 24757 ft 419 kts 162°
2026-05-06 13:27 37.39434 26.29287 24225 ft 417 kts 161°
2026-05-06 13:27 37.36725 26.30495 23705 ft 416 kts 162°
2026-05-06 13:27 37.33992 26.31714 23175 ft 415 kts 162°
2026-05-06 13:28 37.31278 26.32922 22652 ft 413 kts 162°
2026-05-06 13:28 37.28587 26.34175 22041 ft 415 kts 158°
2026-05-06 13:28 37.25962 26.35793 21201 ft 422 kts 151°
2026-05-06 13:28 37.23445 26.37666 20481 ft 425 kts 148°
2026-05-06 13:29 37.20941 26.39670 19874 ft 423 kts 147°
2026-05-06 13:29 37.18499 26.41660 19299 ft 416 kts 147°
2026-05-06 13:29 37.16090 26.43609 18780 ft 402 kts 147°
2026-05-06 13:29 37.13765 26.45469 18272 ft 389 kts 147°
2026-05-06 13:30 37.11512 26.47248 17781 ft 377 kts 148°
2026-05-06 13:30 37.09322 26.48950 17297 ft 366 kts 148°
2026-05-06 13:30 37.07160 26.50608 16820 ft 356 kts 148°
2026-05-06 13:30 37.05060 26.52206 16393 ft 349 kts 148°
2026-05-06 13:31 37.02992 26.53775 15903 ft 350 kts 148°
2026-05-06 13:31 37.00903 26.55355 15444 ft 349 kts 148°
2026-05-06 13:31 36.98826 26.56925 14983 ft 349 kts 148°
2026-05-06 13:31 36.96779 26.58472 14531 ft 348 kts 148°
2026-05-06 13:32 36.94713 26.60033 14073 ft 347 kts 148°
2026-05-06 13:32 36.92651 26.61590 13624 ft 346 kts 147°
2026-05-06 13:32 36.90576 26.63157 13166 ft 345 kts 147°
2026-05-06 13:32 36.88528 26.64701 12709 ft 344 kts 147°
2026-05-06 13:33 36.86482 26.66243 12246 ft 343 kts 148°
2026-05-06 13:33 36.84464 26.67765 11794 ft 341 kts 147°
2026-05-06 13:33 36.82539 26.69499 11342 ft 338 kts 137°
2026-05-06 13:33 36.80867 26.71520 10899 ft 335 kts 131°
2026-05-06 13:34 36.79332 26.73660 10455 ft 333 kts 129°
2026-05-06 13:34 36.77838 26.75828 10099 ft 328 kts 128°
2026-05-06 13:34 36.76365 26.77951 9965 ft 315 kts 128°
2026-05-06 13:34 36.74932 26.79977 9615 ft 312 kts 129°
2026-05-06 13:35 36.73474 26.82008 9152 ft 313 kts 129°
2026-05-06 13:35 36.72022 26.84011 8768 ft 311 kts 129°
2026-05-06 13:35 36.70582 26.85987 8401 ft 309 kts 129°
2026-05-06 13:35 36.69245 26.88063 7981 ft 305 kts 120°
2026-05-06 13:36 36.68204 26.90307 7636 ft 300 kts 113°
2026-05-06 13:36 36.67292 26.92650 7255 ft 297 kts 111°
2026-05-06 13:36 36.66430 26.94952 6889 ft 295 kts 111°
2026-05-06 13:36 36.65545 26.97268 6473 ft 295 kts 112°
2026-05-06 13:37 36.64645 26.99566 6058 ft 295 kts 112°
2026-05-06 13:37 36.63747 27.01815 5660 ft 287 kts 112°
2026-05-06 13:37 36.62861 27.04005 5366 ft 277 kts 112°
2026-05-06 13:37 36.62003 27.06128 5208 ft 268 kts 112°
2026-05-06 13:38 36.61189 27.08144 5129 ft 256 kts 112°
2026-05-06 13:38 36.60403 27.10096 5056 ft 245 kts 111°
2026-05-06 13:38 36.59721 27.11985 4985 ft 233 kts 103°
2026-05-06 13:38 36.59505 27.13935 4823 ft 227 kts 75°
2026-05-06 13:39 36.59977 27.15789 4552 ft 226 kts 62°
2026-05-06 13:39 36.60617 27.17570 4276 ft 224 kts 61°
2026-05-06 13:39 36.61369 27.19257 3774 ft 224 kts 49°
2026-05-06 13:39 36.62546 27.20424 3434 ft 209 kts 16°
2026-05-06 13:40 36.63922 27.20614 3291 ft 192 kts 355°
2026-05-06 13:40 36.65196 27.20259 3113 ft 183 kts 338°
2026-05-06 13:40 36.66270 27.19465 2936 ft 180 kts 328°
2026-05-06 13:40 36.67312 27.18583 2766 ft 178 kts 328°
2026-05-06 13:41 36.68328 27.17768 2602 ft 170 kts 329°
2026-05-06 13:41 36.69309 27.17001 2461 ft 165 kts 329°
2026-05-06 13:41 36.70307 27.16227 2285 ft 171 kts 329°
2026-05-06 13:41 36.71332 27.15433 2002 ft 174 kts 329°
2026-05-06 13:42 36.72308 27.14675 1769 ft 160 kts 329°
2026-05-06 13:42 36.73200 27.13981 1575 ft 145 kts 328°
2026-05-06 13:42 36.74054 27.13331 1366 ft 144 kts 329°
2026-05-06 13:42 36.74925 27.12697 1267 ft 146 kts 327°
2026-05-06 13:43 36.75787 27.12007 1145 ft 148 kts 326°
2026-05-06 13:43 36.76645 27.11305 951 ft 146 kts 326°
2026-05-06 13:43 36.77503 27.10618 685 ft 146 kts 326°
2026-05-06 13:43 36.78354 27.09967 451 ft 143 kts 326°
2026-05-06 13:44 36.79140 27.09350 385 ft 103 kts 329°
2026-05-06 13:44 36.79535 27.09046 396 ft 34 kts 326°
2026-05-06 13:44 36.79686 27.08981 403 ft 10 kts 356°
2026-05-06 13:44 36.79734 27.08981 404 ft 4 kts 360°
2026-05-06 13:45 36.79771 27.08981 406 ft 9 kts 360°
2026-05-06 13:45 36.79958 27.08957 412 ft 17 kts 330°
2026-05-06 13:45 36.80066 27.08877 415 ft 12 kts 338°
2026-05-06 13:46 36.80110 27.08899 417 ft 7 kts 34°
2026-05-06 13:46 36.80136 27.08922 418 ft 2 kts 30°
2026-05-06 13:46 36.80137 27.08922 418 ft 0 kts 30°